WELCOME TO TCFT

Voted One Of The Best Flight Schools In The USA

 

 

BECOME AN AIRLINE PILOT

Treasure Coast Flight Training is committed to serving all of your aviation needs as a full service flight academy, aircraft rental facility, and pilot shop

 

 

Questions About Becoming An Airline Pilot?

 

 

What Our Graduates Say

 

 

The training I received with Treasure Coast Flight Training prepared me to become a professional pilot

 

Nathan Meisner

Pilot - Cessna Caravan - USA

Professional yet relaxed environment. Truly an enjoyable experience to fly with TCFT

 

Sophia

Certified Flight Instructor - China

The training I needed to get me to where I am now!

 

Enderson Rafael

Pilot - Go Airlines - Brazil

Thank you TCFT for making me an airline pilot!

 

Kyle Barrett

Pilot - GoJet Airlines - USA

Current Conditions

 

Metar

 

KSUA 220655Z AUTO 23003KT 10SM SCT080 SCT110 26/23 A2996 RMK AO2

 

TAF

 

TAF KSUA 220541Z 2206/2306 00000KT P6SM BKN090 BKN200 FM221400 28008KT P6SM SCT020 SCT250 FM222000 10008KT P6SM VCTS SCT035CB BKN060 FM230100 25004KT P6SM FEW035 SCT060 BKN120

 

 

Look No Further. Get Started Today